Location: Les Coudrans
(46.1056°N, 1.1158°W)
Time: 17:08:42
(UTC+00:00)

HJ-1C - Pass Details

Date: 03 March 2021
Orbit: 428 x 440 km, 97.1° (Epoch: 15 April)

Event Time Altitude Azimuth Distance (km) Brightness Sun altitude
Rises 18:31:48 0° 150° (SSE) 2,416 6.8 -7.4°
Reaches altitude 10° 18:33:53 10° 142° (SE) 1,550 5.8 -7.7°
Maximum altitude 18:37:00 39° 73° (ENE) 679 3.8 -8.3°
Drops below altitude 10° 18:40:07 10° 3° (N) 1,556 6.1 -8.8°
Sets 18:42:13 0° 355° (N) 2,427 7.2 -9.2°
